This is the latest recevied weather packets stored in our database for station/object KD6VLN-14. If no packets are shown the sender has not sent any weather packets the latest 1 day(s).
| Time | Temp. | Humidity | Pressure | Rain* | Wind** | Luminosity | Snow |
|---|---|---|---|---|---|---|---|
| 1778038336 | 17.78° C | 36% | - | 0 mm | 0.89 m/s, 257° | - | - |
| 1778038148 | 17.78° C | 36% | - | 0 mm | 0.89 m/s, 257° | - | - |
| 1778038053 | 17.78° C | 36% | - | 0 mm | 0.89 m/s, 260° | - | - |
| 1778037848 | 17.78° C | 36% | - | 0 mm | 0.89 m/s, 260° | - | - |
| 1778037670 | 17.78° C | 36% | - | 0 mm | 1.34 m/s, 259° | - | - |
| 1778037548 | 17.78° C | 36% | - | 0 mm | 1.34 m/s, 259° | - | - |
| 1778037452 | 17.78° C | 36% | - | 0 mm | 1.79 m/s, 265° | - | - |
| 1778037248 | 17.78° C | 36% | - | 0 mm | 1.79 m/s, 265° | - | - |
| 1778037110 | 17.78° C | 36% | - | 0 mm | 1.79 m/s, 264° | - | - |
| 1778036948 | 17.78° C | 36% | - | 0 mm | 1.79 m/s, 264° | - | - |
| 1778036798 | 17.78° C | 36% | - | 0 mm | 2.68 m/s, 263° | - | - |
| 1778036649 | 17.78° C | 36% | - | 0 mm | 2.68 m/s, 263° | - | - |
| 1778036525 | 17.78° C | 36% | - | 0 mm | 2.68 m/s, 262° | - | - |
| 1778036253 | 17.78° C | 36% | - | 0 mm | 2.24 m/s, 258° | - | - |
| 1778036048 | 17.78° C | 36% | - | 0 mm | 2.24 m/s, 258° | - | - |
| 1778035929 | 17.78° C | 36% | - | 0 mm | 3.58 m/s, 256° | - | - |
| 1778035748 | 17.78° C | 36% | - | 0 mm | 3.58 m/s, 256° | - | - |
| 1778035615 | 17.78° C | 36% | - | 0 mm | 2.68 m/s, 266° | - | - |
| 1778035448 | 17.78° C | 36% | - | 0 mm | 2.68 m/s, 266° | - | - |
| 1778035263 | 18.33° C | 36% | - | 0 mm | 2.68 m/s, 263° | - | - |
| 1778035148 | 18.33° C | 36% | - | 0 mm | 2.68 m/s, 263° | - | - |
| 1778034998 | 18.33° C | 36% | - | 0 mm | 3.58 m/s, 263° | - | - |
| 1778034848 | 18.33° C | 36% | - | 0 mm | 3.58 m/s, 263° | - | - |
| 1778034722 | 18.33° C | 36% | - | 0 mm | 3.13 m/s, 266° | - | - |
| 1778034548 | 18.33° C | 36% | - | 0 mm | 3.13 m/s, 266° | - | - |
* Rain latest hour (hover to see other rain measurements)
** Current wind speed in m/s (hover to see current wind gust speed)